Content
SEND FEEDBACK

Daily
Averages
Monthly
Summary
Greece

ATHENS, GREECE


Home > Europe > Greece
Elevation: 69 feet     Latitude: 37 54N     Longitude: 023 44E

WEATHER
 
SELECT A DAY
Number of Records: 77,074;   Date Range: 4/14/01 - 8/8/14
 
SHARE

PRINT THIS DATA

[ ← Previous Day ]
WEATHER ALMANAC - JANUARY 24, 2013
[ Next Day → ]
[ °C ]   °F
Weather ElementAverageHighLow
Temperature54.8 °F64.4 °F (12:50 pm)42.8 °F (11:20 pm)
Dewpoint46.1 °F51.8 °F (7:20 am)39.2 °F (11:20 pm)
Humidity73.7 %87 % (3:20 am)49 % (1:20 pm)
Barometer29.76 in29.95 in (12:50 am)29.62 in (4:50 pm)
Wind Speed14.1 mph34.5 mph (2:20 pm)
Wind Gust46 mph (3:20 pm)
Weather ElementAverage
Visibility5.8 mi
Wind DirectionSSE (170.6 °)

Weather ElementTotal
Precipitation---
Heating Degree Days11.4 (Base 65)
Growing Degree Days3.6 (Base 50)
Averaged from 47 records on January 24, 2013
WEATHER CONDITIONS BREAKOUT
WIND DIRECTION BREAKOUT
WEATHER BY HOUR - JANUARY 24, 2013
[ °C ]   °F
Local TimeTemperatureDewpointHumidityBarometerVisibilityWind DirectionWind SpeedGust SpeedPrecipitationEventsConditions
12:50 AM46.4 °F41.0 °F81 %29.95 in6.2 miNorth (350°)2.3 mphMostly Cloudy
1:20 AM48.2 °F42.8 °F82 %29.95 in6.2 miNorth (10°)3.5 mphMostly Cloudy
1:50 AM50.0 °F42.8 °F76 %29.95 in6.2 miESE (120°)1.2 mphMostly Cloudy
2:20 AM48.2 °F42.8 °F82 %29.95 in6.2 miWSW (240°)2.3 mphMostly Cloudy
2:50 AM48.2 °F42.8 °F82 %29.92 in6.2 miWest (270°)2.3 mphMostly Cloudy
3:20 AM46.4 °F42.8 °F87 %29.92 in6.2 miNorth (350°)2.3 mphMostly Cloudy
3:50 AM48.2 °F42.8 °F82 %29.92 in6.2 miCalmMostly Cloudy
4:20 AM46.4 °F42.8 °F87 %29.89 in6.2 miVariable1.2 mphMostly Cloudy
4:50 AM51.8 °F46.4 °F82 %29.89 in6.2 miSSW (210°)4.6 mphMostly Cloudy
5:20 AM55.4 °F50.0 °F82 %29.89 in6.2 miSouth (170°)6.9 mphMostly Cloudy
5:50 AM55.4 °F50.0 °F82 %29.86 in6.2 miVariable2.3 mphMostly Cloudy
6:20 AM55.4 °F50.0 °F82 %29.86 in6.2 miSouth (190°)11.5 mphMostly Cloudy
6:50 AM57.2 °F50.0 °F77 %29.86 in6.2 miSouth (190°)13.8 mphRainLight Rain
7:20 AM57.2 °F51.8 °F82 %29.86 in6.2 miSouth (180°)15.0 mphMostly Cloudy
7:50 AM57.2 °F51.8 °F82 %29.86 in6.2 miSouth (170°)11.5 mphMostly Cloudy
8:20 AM57.2 °F51.8 °F82 %29.86 in6.2 miSouth (180°)13.8 mphMostly Cloudy
8:50 AM57.2 °F50.0 °F77 %29.83 in6.2 miSouth (170°)10.4 mphMostly Cloudy
9:20 AM59.0 °F50.0 °F72 %29.86 in6.2 miSouth (180°)17.3 mphMostly Cloudy
9:50 AM59.0 °F48.2 °F67 %29.83 in6.2 miSouth (180°)16.1 mphMostly Cloudy
10:20 AM59.0 °F50.0 °F72 %29.83 in6.2 miSouth (170°)18.4 mphMostly Cloudy
10:50 AM59.0 °F50.0 °F72 %29.83 in6.2 miSouth (170°)20.7 mphMostly Cloudy
11:20 AM60.8 °F50.0 °F68 %29.80 in6.2 miSSE (160°)23.0 mph34.5 mphMostly Cloudy
11:50 AM62.6 °F48.2 °F59 %29.77 in6.2 miSouth (170°)26.5 mphScattered Clouds
12:20 PM62.6 °F48.2 °F59 %29.77 in6.2 miSouth (170°)25.3 mphScattered Clouds
12:50 PM64.4 °F46.4 °F52 %29.71 in6.2 miSouth (180°)25.3 mphScattered Clouds
1:20 PM64.4 °F44.6 °F49 %29.68 in6.2 miSouth (180°)32.2 mphScattered Clouds
1:50 PM64.4 °F44.6 °F49 %29.65 in6.2 miSouth (170°)29.9 mphScattered Clouds
2:20 PM64.4 °F44.6 °F49 %29.68 in6.2 miSouth (180°)34.5 mphScattered Clouds
2:50 PM62.6 °F46.4 °F55 %29.65 in6.2 miSouth (190°)29.9 mphMostly Cloudy
3:20 PM62.6 °F46.4 °F55 %29.65 in6.2 miSouth (180°)31.1 mph46.0 mphMostly Cloudy
3:50 PM62.6 °F46.4 °F55 %29.65 in6.2 miSouth (180°)31.1 mph42.6 mphMostly Cloudy
4:20 PM60.8 °F48.2 °F63 %29.65 in6.2 miSouth (190°)26.5 mphMostly Cloudy
4:50 PM60.8 °F48.2 °F63 %29.62 in6.2 miSouth (180°)25.3 mphMostly Cloudy
5:20 PM59.0 °F50.0 °F72 %29.62 in5.6 miSouth (180°)23.0 mphMostly Cloudy
5:50 PM59.0 °F50.0 °F72 %29.62 in5.6 miSouth (180°)19.6 mphThunderstormThunderstorm
6:20 PM59.0 °F50.0 °F72 %29.62 in5.6 miSouth (180°)23.0 mphThunderstormThunderstorm
6:50 PM51.8 °F44.6 °F76 %29.62 in1.2 miWSW (250°)18.4 mphRain-ThunderstormThunderstorms and Rain
7:20 PM51.8 °F46.4 °F82 %29.62 in2.5 miWest (280°)15.0 mphRain-ThunderstormThunderstorms and Rain
7:50 PM50.0 °F42.8 °F76 %29.62 in3.7 miWest (260°)6.9 mphRainLight Rain
8:20 PM50.0 °F42.8 °F76 %29.62 in5.0 miNE (50°)4.6 mphOvercast
8:50 PM50.0 °F42.8 °F76 %29.62 in5.0 miEast (100°)8.1 mphRainLight Rain
9:20 PM48.2 °F42.8 °F82 %29.62 in5.0 miESE (110°)4.6 mphRainLight Rain
9:50 PM46.4 °F42.8 °F87 %29.62 in6.2 miSSW (210°)6.9 mphOvercast
10:20 PM44.6 °F41.0 °F87 %29.62 in6.2 miVariable3.5 mphOvercast
10:50 PM44.6 °F41.0 °F87 %29.62 in6.2 miWSW (240°)3.5 mphMostly Cloudy
11:20 PM42.8 °F39.2 °F87 %29.62 in6.2 miNorth (350°)4.6 mphScattered Clouds
11:50 PM42.8 °F39.2 °F87 %29.62 in6.2 miVariable1.2 mphScattered Clouds
Hourly data recorded from LGAV, located miles away from Athens, Greece







STORIES FROM OUR PARTNERS